This demonstration page uses our WeatherBlox Daily Observations layout. Learn more.

Left ArrowRight Arrow

39.51506, -84.39828

Hourly Observations for April 29, 2020

Temp ( °F °C ) Dew Point ( °F °C ) Humidity (%) Winds ( mph kmh ) Pressure ( in mb ) Visibility ( mi km ) Precip ( " mm )
12:15 am 00:15 Clear 65 18.2 49 9.2 56 56 S 7 11 29.79 1009 N/A 0 0
12:35 am 00:35 Clear 64 18 49 9.2 57 57 S 8 13 29.79 1009 N/A 0 0
12:55 am 00:55 Mostly Cloudy 66 18.7 48 8.8 53 53 S 13 20 29.78 1008 N/A 0 0
1:15 am 01:15 Cloudy 66 19.1 47 8.5 50 50 S 12 19 29.77 1008 N/A 0 0
1:35 am 01:35 Cloudy 64 18 49 9.6 58 58 S 8 13 29.78 1008 N/A 0 0
1:55 am 01:55 Mostly Cloudy 66 18.8 47 8.6 52 52 S 10 17 29.76 1008 N/A 0 0
2:15 am 02:15 Mostly Cloudy 66 18.9 47 8.2 50 50 S 15 24 29.74 1007 N/A 0 0
2:35 am 02:35 Cloudy 65 18.6 47 8.4 52 52 S 14 22 29.73 1007 N/A 0 0
2:55 am 02:55 Cloudy 66 18.8 47 8.2 50 50 S 14 22 29.71 1006 N/A 0 0
3:15 am 03:15 Cloudy 66 18.8 47 8.5 51 51 S 17 28 29.72 1006 N/A 0 0
3:35 am 03:35 Cloudy 63 17.4 49 9.6 60 60 S 10 17 29.71 1006 N/A 0 0
3:55 am 03:55 Mostly Cloudy 63 17.4 49 9.6 60 60 S 12 19 29.7 1006 N/A 0 0
4:15 am 04:15 Mostly Cloudy 64 17.5 49 9.3 59 59 S 8 13 29.71 1006 N/A 0 0
4:35 am 04:35 Cloudy 64 17.6 48 9.1 58 58 S 8 13 29.7 1006 N/A 0 0
4:55 am 04:55 Cloudy 64 17.6 48 9.1 58 58 S 8 13 29.69 1005 N/A 0 0
5:15 am 05:15 Cloudy 64 17.8 48 8.9 56 56 S 12 19 29.68 1005 N/A 0 0
5:35 am 05:35 Cloudy 64 18 48 8.8 55 55 S 8 13 29.68 1005 N/A 0 0
5:55 am 05:55 Cloudy 64 17.8 48 8.7 55 55 S 13 20 29.67 1005 N/A 0 0
6:15 am 06:15 Cloudy 65 18.1 48 8.9 55 55 S 12 19 29.65 1004 N/A 0 0
6:35 am 06:35 Cloudy 65 18.1 48 9.1 56 56 S 13 20 29.65 1004 N/A 0 0
6:55 am 06:55 Cloudy 64 18 49 9.5 58 58 S 14 22 29.65 1004 N/A 0 0
7:15 am 07:15 Cloudy 65 18.2 51 10.3 60 60 S 20 31 29.64 1004 N/A 0 0
7:35 am 07:35 Cloudy 62 16.6 54 12.2 75 75 S 23 37 29.64 1004 N/A 0 0
7:55 am 07:55 Cloudy 62 16.9 53 11.9 73 73 S 22 35 29.62 1003 N/A 0 0
8:15 am 08:15 Cloudy 63 17.2 52 11.3 68 68 S 17 28 29.61 1003 N/A 0 0
8:35 am 08:35 Cloudy 64 17.7 51 10.6 63 63 S 21 33 29.59 1002 N/A 0 0
8:55 am 08:55 Cloudy 64 17.8 51 10.6 63 63 S 22 35 29.58 1002 N/A 0 0
9:15 am 09:15 Cloudy 64 17.8 51 10.7 63 63 S 20 31 29.57 1001 N/A 0 0
9:35 am 09:35 Cloudy 64 17.9 52 11 64 64 SSE 14 22 29.55 1001 N/A 0 0
9:55 am 09:55 Cloudy 65 18.4 52 11.1 63 63 S 15 24 29.54 1000 N/A 0 0
10:15 am 10:15 Cloudy 67 19.2 52 11.2 60 60 S 17 28 29.54 1000 N/A 0 0
10:35 am 10:35 Cloudy 66 18.9 52 11.1 61 61 S 25 41 29.55 1001 N/A 0 0
10:55 am 10:55 Cloudy 63 17.3 54 12.3 73 73 SSW 28 44 29.58 1002 N/A 0 0
11:15 am 11:15 Cloudy 61 16.1 56 13.2 83 83 SSW 22 35 29.59 1002 N/A 0 0
11:35 am 11:35 Cloudy 62 16.6 56 13.5 82 82 SSW 18 30 29.59 1002 N/A 0 0
11:55 am 11:55 Cloudy 63 17 56 13.5 80 80 S 17 28 29.6 1002 N/A 0 0
12:15 pm 12:15 Cloudy 62 16.5 57 14.1 86 86 S 16 26 29.6 1002 N/A 0 0
12:35 pm 12:35 Mostly Cloudy 64 18 60 15.3 84 84 S 14 22 29.58 1002 N/A 0 0
12:55 pm 12:55 Cloudy 65 18.1 58 14.4 79 79 SSW 17 28 29.58 1002 N/A 0 0
1:15 pm 13:15 Mostly Cloudy 66 19.1 57 13.9 72 72 SSW 23 37 29.58 1002 N/A 0 0
1:35 pm 13:35 Cloudy 58 14.5 53 11.8 84 84 WSW 12 19 29.62 1003 N/A 0 0
1:55 pm 13:55 undefined 58 14.4 54 12.2 87 87 SW 8 13 29.63 1003 N/A 0 0
2:15 pm 14:15 Cloudy 59 15 55 12.5 85 85 SSW 5 7 29.63 1003 N/A 0 0
2:35 pm 14:35 Partly Cloudy 61 16.1 55 12.6 80 80 SW 9 15 29.62 1003 N/A 0 0
2:55 pm 14:55 Sunny 62 16.9 55 12.5 75 75 SW 10 17 29.61 1003 N/A 0 0
3:15 pm 15:15 Cloudy 63 17.3 53 11.8 70 70 SW 8 13 29.61 1003 N/A 0 0
3:35 pm 15:35 Mostly Cloudy 64 17.5 53 11.7 69 69 WSW 12 19 29.61 1003 N/A 0 0
3:55 pm 15:55 Cloudy 62 16.8 50 9.9 64 64 SW 8 13 29.6 1002 N/A 0 0
4:15 pm 16:15 Cloudy 62 16.4 55 12.6 78 78 SSE 13 20 29.62 1003 N/A 0 0
4:35 pm 16:35 undefined 60 15.6 56 13.4 87 87 SSE 10 17 29.63 1003 N/A 0 0
4:55 pm 16:55 Cloudy 59 15 56 13.3 90 90 SSE 13 20 29.64 1004 N/A 0 0
5:15 pm 17:15 undefined 58 14.7 55 12.7 88 88 SSE 16 26 29.65 1004 N/A 0 0
5:35 pm 17:35 undefined 58 14.4 55 12.7 90 90 S 12 19 29.65 1004 N/A 0 0
5:55 pm 17:55 undefined 58 14.2 54 12.4 89 89 SE 12 19 29.62 1003 N/A 0 0
6:15 pm 18:15 undefined 57 13.9 54 12 88 88 S 12 19 29.63 1003 N/A 0 0
6:35 pm 18:35 undefined 57 14 53 11.6 86 86 SSW 12 19 29.66 1004 N/A 0 0
6:55 pm 18:55 Partly Cloudy 57 14.1 52 11.2 83 83 SSW 16 26 29.68 1005 N/A 0 0
7:15 pm 19:15 Partly Cloudy 57 14 52 10.9 82 82 S 14 22 29.67 1005 N/A 0 0
7:35 pm 19:35 Mostly Cloudy 57 13.8 51 10.7 82 82 SSW 12 19 29.67 1005 N/A 0 0
7:55 pm 19:55 Sunny 56 13.4 51 10.5 83 83 SSW 15 24 29.66 1004 N/A 0 0
8:15 pm 20:15 Mostly Cloudy 56 13.3 51 10.3 82 82 S 12 19 29.67 1005 N/A 0 0
8:35 pm 20:35 Clear 55 13 50 10.1 83 83 S 9 15 29.66 1004 N/A 0 0
8:55 pm 20:55 Partly Cloudy 55 12.7 50 10.1 84 84 S 9 15 29.67 1005 N/A 0 0
9:15 pm 21:15 Clear 55 12.5 50 10 85 85 S 10 17 29.66 1004 N/A 0 0
9:35 pm 21:35 undefined 54 12.3 50 10 86 86 S 12 19 29.66 1005 N/A 0 0
9:55 pm 21:55 Mostly Cloudy 54 12.1 50 9.9 87 87 S 7 11 29.65 1004 N/A 0 0
10:15 pm 22:15 undefined 53 11.8 50 10 89 89 SSW 9 15 29.66 1005 N/A 0 0
10:35 pm 22:35 Cloudy 54 12.1 50 10.2 88 88 S 7 11 29.66 1005 N/A 0 0
10:55 pm 22:55 Cloudy 53 11.8 51 10.5 92 92 WSW 7 11 29.67 1005 N/A 0 0
11:15 pm 23:15 undefined 53 11.5 51 10.7 95 95 SSW 10 17 29.67 1005 N/A 0 0
11:35 pm 23:35 undefined 52 11.1 50 10.2 94 94 SSW 12 19 29.68 1005 N/A 0 0
11:55 pm 23:55 undefined 52 10.9 50 10 94 94 S 10 17 29.67 1005 N/A 0 0

Powered by AerisWeather